Location: Bu�n Treun
(12.1333°N, 108.3167°E)
Time: 23:08:39
(UTC+00:00)

Cosmos 1674 - Pass Details

Date: 13 July 2020
Orbit: 493 x 519 km, 82.5° (Epoch: 03 August)

Event Time Altitude Azimuth Distance (km) Brightness Sun altitude
Rises 21:48:42 0° 7° (N) 2,569 6.7 -9.9°
Reaches altitude 10° 21:50:54 10° 15° (NNE) 1,684 5.9 -9.5°
Maximum altitude 21:54:22 39° 85° (E) 754 4.2 -8.7°
Drops below altitude 10° 21:57:49 10° 155° (SSE) 1,681 5.3 -7.9°
Sets 22:00:00 0° 163° (SSE) 2,563 6.2 -7.4°
